Elkins, WV

10:25 PM EST on February 05, 2016 (GMT -0500)
Elkins-Randolph County

Weather History for KEKN - March, 2013

Change the Weather History Date:

Wednesday, March 27, 2013

  Actual Average Record
Temperature  
Mean Temperature 32 °F 44 °F  
Max Temperature 35 °F 56 °F 84 °F (1921)
Min Temperature 29 °F 31 °F 11 °F (2001)
Degree Days  
Heating Degree Days 33 22  
Month to date heating degree days 823 698  
Since 1 July heating degree days 5070 5019  
Cooling Degree Days 0 0  
Month to date cooling degree days 0 0  
Year to date cooling degree days 0 0  
Moisture  
Dew Point 25 °F    
Average Humidity 75    
Maximum Humidity 85    
Minimum Humidity 64    
Precipitation  
Precipitation 0.05 in 0.14 in 1.29 in (1932)
Month to date precipitation 2.80 3.43  
Year to date precipitation 9.41 9.76  
Snow  
Snow 0.00 in - - ()
Month to date snowfall 16.8  
Since 1 September snowfall 75.5  
Snow Depth -    
Sea Level Pressure  
Sea Level Pressure 30.14 in    
Wind  
Wind Speed 8 mph (WNW)    
Max Wind Speed 16 mph    
Max Gust Speed 22 mph    
Visibility 5 miles    
Events Fog , Snow    
T = Trace of Precipitation, MM = Missing Value Source: NWS Daily Summary

Daily Weather History Graph

Daily Weather History Graph

Search for Another Location

Airport or City:

Trip Planner

Search our weather history database for the weather conditions in past years. The results will help you decide how hot, cold, wet, or windy it might be!

Date:

Astronomy

Mar. 27, 2013 Rise Set
Actual Time 7:11 AM EDT 7:38 PM EDT
Civil Twilight 6:44 AM EDT 8:05 PM EDT
Nautical Twilight 6:13 AM EDT 8:36 PM EDT
Astronomical Twilight 5:41 AM EDT 9:08 PM EDT
Moon 8:19 PM EDT (3/27) 7:02 AM EDT (3/27)
Length of Visible Light 13h 20m
Length of Day
12h 26m
Full, 100% of the Moon is Illuminated
Mar 27
Full
Apr 3
Last Quarter
Apr 10
New
Apr 18
First Quarter
Apr 25
Full

Hourly Weather History & Observations

Time (EDT) Temp. Windchill Dew Point Humidity Pressure Visibility Wind Dir Wind Speed Gust Speed Precip Events Conditions
12:19 AM 30.2 °F 21.3 °F 26.6 °F 86% 30.07 in 2.5 mi WNW 10.4 mph - 0.00 in Snow Light Snow
12:33 AM 30.2 °F 21.3 °F 26.6 °F 86% 30.07 in 4.0 mi WNW 10.4 mph 17.3 mph 0.00 in Snow Light Snow
12:51 AM 30.9 °F 22.2 °F 25.0 °F 79% 30.14 in 4.0 mi WNW 10.4 mph 20.7 mph 0.00 in Snow Light Snow
1:51 AM 30.9 °F 21.7 °F 23.0 °F 72% 30.15 in 10.0 mi WNW 11.5 mph - 0.00 in   Overcast
2:38 AM 30.2 °F 23.4 °F 24.8 °F 80% 30.07 in 1.8 mi West 6.9 mph - 0.00 in Snow Light Snow
2:51 AM 30.0 °F 23.2 °F 24.1 °F 79% 30.14 in 3.0 mi WNW 6.9 mph - 0.00 in Snow Light Snow
3:29 AM 30.2 °F 21.9 °F 24.8 °F 80% 30.06 in 1.8 mi WNW 9.2 mph - 0.00 in Snow Light Snow
3:39 AM 30.2 °F 22.6 °F 24.8 °F 80% 30.06 in 3.0 mi West 8.1 mph - 0.01 in Snow Light Snow
3:51 AM 30.0 °F 22.4 °F 24.1 °F 79% 30.13 in 5.0 mi WNW 8.1 mph - 0.01 in Snow Light Snow
4:04 AM 28.4 °F 20.4 °F 24.8 °F 86% 30.06 in 1.8 mi WNW 8.1 mph - 0.00 in Snow Light Snow
4:24 AM 28.4 °F 19.7 °F 24.8 °F 86% 30.06 in 2.0 mi WNW 9.2 mph 16.1 mph 0.00 in Snow Light Snow
4:44 AM 28.4 °F 20.4 °F 24.8 °F 86% 30.06 in 4.0 mi WNW 8.1 mph - 0.00 in Snow Light Snow
4:51 AM 30.0 °F 22.4 °F 24.1 °F 79% 30.13 in 6.0 mi WNW 8.1 mph - 0.00 in Snow Light Snow
5:14 AM 28.4 °F 21.2 °F 24.8 °F 86% 30.06 in 1.8 mi WNW 6.9 mph - 0.01 in Snow Light Snow
5:19 AM 28.4 °F 21.2 °F 24.8 °F 86% 30.06 in 0.8 mi NW 6.9 mph - 0.01 in Snow Light Snow
5:30 AM 28.4 °F 24.6 °F 26.6 °F 93% 30.07 in 1.2 mi WNW 3.5 mph - 0.01 in Snow Light Snow
5:41 AM 28.4 °F 19.7 °F 24.8 °F 86% 30.07 in 3.0 mi West 9.2 mph 16.1 mph 0.02 in Snow Light Snow
5:51 AM 28.9 °F 21.1 °F 25.0 °F 85% 30.14 in 3.0 mi West 8.1 mph 18.4 mph 0.02 in Snow Light Snow
5:58 AM 28.4 °F 19.7 °F 24.8 °F 86% 30.07 in 3.0 mi WNW 9.2 mph - 0.00 in Snow Light Snow
6:51 AM 28.9 °F 19.8 °F 25.0 °F 85% 30.16 in 2.5 mi West 10.4 mph - 0.01 in Snow Light Snow
7:01 AM 28.4 °F 19.1 °F 24.8 °F 86% 30.08 in 5.0 mi West 10.4 mph - 0.00 in Snow Light Snow
7:17 AM 28.4 °F 18.5 °F 24.8 °F 86% 30.08 in 1.8 mi West 11.5 mph - 0.00 in Snow Light Snow
7:33 AM 28.4 °F 19.1 °F 24.8 °F 86% 30.09 in 1.0 mi WNW 10.4 mph 18.4 mph 0.00 in Snow Light Snow
7:51 AM 28.9 °F 20.4 °F 24.1 °F 82% 30.17 in 1.8 mi West 9.2 mph - 0.00 in Snow Light Snow
8:03 AM 28.4 °F 19.1 °F 24.8 °F 86% 30.10 in 2.5 mi WNW 10.4 mph 16.1 mph 0.00 in Snow Light Snow
8:39 AM 28.4 °F 22.2 °F 23.0 °F 80% 30.12 in 3.0 mi West 5.8 mph 16.1 mph 0.00 in Snow Light Snow
8:51 AM 28.9 °F 20.4 °F 23.0 °F 78% 30.20 in 2.0 mi West 9.2 mph 21.9 mph 0.00 in Snow Light Snow
8:59 AM 28.4 °F 17.5 °F 23.0 °F 80% 30.12 in 1.2 mi West 13.8 mph 20.7 mph 0.00 in Snow Light Snow
9:11 AM 28.4 °F 21.2 °F 24.8 °F 86% 30.12 in 0.8 mi WSW 6.9 mph - 0.00 in Snow Light Snow
9:23 AM 28.4 °F 21.2 °F 24.8 °F 86% 30.13 in 1.0 mi West 6.9 mph - 0.00 in Snow Light Snow
9:51 AM 30.0 °F 21.7 °F 23.0 °F 75% 30.21 in 2.5 mi West 9.2 mph 17.3 mph 0.00 in Snow Light Snow
9:58 AM 30.2 °F 19.3 °F 23.0 °F 75% 30.13 in 4.0 mi WNW 15.0 mph 20.7 mph 0.00 in Snow Light Snow
10:48 AM 30.2 °F 20.8 °F 24.8 °F 80% 30.14 in 5.0 mi West 11.5 mph 18.4 mph 0.00 in Snow Light Snow
10:51 AM 30.0 °F 21.7 °F 24.1 °F 79% 30.21 in 5.0 mi West 9.2 mph 18.4 mph 0.00 in Snow Light Snow
11:51 AM 30.0 °F 20.5 °F 24.1 °F 79% 30.22 in 5.0 mi WNW 11.5 mph - 0.00 in Snow Light Snow
12:51 PM 30.0 °F 22.4 °F 24.1 °F 79% 30.22 in 8.0 mi WNW 8.1 mph 17.3 mph 0.00 in Snow Light Snow
1:51 PM 30.9 °F 22.2 °F 25.0 °F 79% 30.23 in 6.0 mi West 10.4 mph - 0.00 in Snow Light Snow
2:19 PM 32.0 °F 25.6 °F 24.8 °F 75% 30.15 in 6.0 mi West 6.9 mph - 0.00 in Snow Light Snow
2:51 PM 32.0 °F 26.4 °F 25.0 °F 75% 30.22 in 5.0 mi West 5.8 mph - 0.00 in Snow Light Snow
3:05 PM 33.8 °F 27.7 °F 24.8 °F 70% 30.14 in 4.0 mi WNW 6.9 mph - 0.00 in Snow Light Snow
3:22 PM 33.8 °F 27.7 °F 26.6 °F 75% 30.14 in 2.0 mi WSW 6.9 mph - 0.00 in Snow Light Snow
3:31 PM 33.8 °F 27.0 °F 26.6 °F 75% 30.13 in 9.0 mi West 8.1 mph - 0.00 in Snow Light Snow
3:46 PM 35.6 °F 29.9 °F 24.8 °F 65% 30.12 in 10.0 mi West 6.9 mph - 0.00 in   Overcast
3:51 PM 35.1 °F 32.2 °F 24.1 °F 64% 30.19 in 10.0 mi Variable 3.5 mph - 0.00 in   Overcast
4:01 PM 33.8 °F 25.3 °F 24.8 °F 70% 30.13 in 2.5 mi WNW 11.5 mph 16.1 mph 0.00 in Snow Light Snow
4:05 PM 32.0 °F 23.6 °F 26.6 °F 80% 30.13 in 0.8 mi WNW 10.4 mph - 0.00 in Snow Light Snow
4:16 PM 32.0 °F 26.4 °F 28.4 °F 87% 30.13 in 0.5 mi NW 5.8 mph - 0.00 in Fog , Snow Snow
4:23 PM 32.0 °F 27.5 °F 28.4 °F 87% 30.12 in 2.0 mi West 4.6 mph - 0.01 in Snow Light Snow
4:26 PM 33.8 °F 27.7 °F 28.4 °F 81% 30.13 in 4.0 mi Variable 6.9 mph - 0.01 in Snow Light Snow
4:37 PM 35.6 °F 29.9 °F 26.6 °F 70% 30.12 in 9.0 mi West 6.9 mph - 0.01 in   Scattered Clouds
4:51 PM 35.1 °F 26.9 °F 25.0 °F 67% 30.19 in 10.0 mi West 11.5 mph 17.3 mph 0.01 in   Mostly Cloudy
5:09 PM 33.8 °F 25.3 °F 24.8 °F 70% 30.12 in 9.0 mi WNW 11.5 mph 20.7 mph N/A   Overcast
5:49 PM 35.6 °F 28.0 °F 26.6 °F 70% 30.13 in 10.0 mi West 10.4 mph 17.3 mph 0.00 in   Overcast
5:51 PM 35.1 °F 28.6 °F 26.1 °F 70% 30.20 in 10.0 mi West 8.1 mph - 0.00 in   Overcast
6:22 PM 33.8 °F 23.9 °F 26.6 °F 75% 30.15 in 1.8 mi NW 15.0 mph 18.4 mph 0.00 in Snow Light Snow
6:31 PM 32.0 °F 25.6 °F 26.6 °F 80% 30.14 in 0.5 mi WNW 6.9 mph - 0.00 in Snow Snow
6:37 PM 33.8 °F 25.8 °F 26.6 °F 75% 30.14 in 2.0 mi West 10.4 mph 16.1 mph 0.00 in Snow Light Snow
6:43 PM 33.8 °F 25.8 °F 26.6 °F 75% 30.14 in 9.0 mi WNW 10.4 mph - 0.00 in   Overcast
6:51 PM 33.1 °F 26.1 °F 26.1 °F 75% 30.22 in 10.0 mi WNW 8.1 mph - 0.00 in   Overcast
7:24 PM 33.8 °F 26.4 °F 26.6 °F 75% 30.15 in 2.0 mi NW 9.2 mph - 0.00 in Snow Light Snow
7:30 PM 33.8 °F 27.7 °F 26.6 °F 75% 30.15 in 0.8 mi WNW 6.9 mph - 0.00 in Snow Light Snow
7:37 PM 33.8 °F 29.6 °F 26.6 °F 75% 30.15 in 2.0 mi West 4.6 mph - 0.00 in Snow Light Snow
7:42 PM 33.8 °F 27.7 °F 26.6 °F 75% 30.15 in 5.0 mi West 6.9 mph - 0.00 in Snow Light Snow
7:51 PM 33.1 °F 25.5 °F 26.1 °F 75% 30.23 in 9.0 mi West 9.2 mph - 0.00 in   Overcast
8:51 PM 33.1 °F 26.1 °F 24.1 °F 70% 30.23 in 10.0 mi WNW 8.1 mph - 0.00 in   Overcast
9:10 PM 33.8 °F 25.8 °F 24.8 °F 70% 30.16 in 5.0 mi WNW 10.4 mph - 0.00 in Snow Light Snow
9:19 PM 33.8 °F 27.0 °F 24.8 °F 70% 30.16 in 6.0 mi WNW 8.1 mph 16.1 mph 0.00 in Snow Light Snow
9:51 PM 33.1 °F 27.7 °F 24.1 °F 70% 30.24 in 10.0 mi WNW 5.8 mph - 0.00 in   Overcast
10:51 PM 33.1 °F 28.7 °F 23.0 °F 66% 30.24 in 10.0 mi West 4.6 mph - 0.00 in   Overcast
11:51 PM 33.1 °F 25.5 °F 23.0 °F 66% 30.24 in 10.0 mi WNW 9.2 mph - 0.00 in   Overcast